Date String (YYYY-MM-DD hh:mm:ss) UTC,Instrument flags,Ambient pressure (hPa),Sample flow (lpm),Bypass flow (lpm),Sample temperature (°C),Ambient temperature (°C),ASC tube jacket temperature (°C),LED temperature (°C),Box temperature (°C),Sample RH (%),Span deviation,Mass concentration (μg/m³),Mass concentration (μg/m³),Mass concentration (μg/m³)
DateTimeUTC,F1_M11,P_M11,Q1_M11,Q2_M11,T1_M11,T2_M11,T3_M11,T4_M11,T5_M11,U1_M11,ZSPAN_M11,X0_M11,X2_M11,X1_M11
2021-08-30 21:00:00,,0824.1,5.00,0.00,29.2,28.1,00.0,38.1,31.1,14.5,0002.3,0048.50,0030.05,0028.39
2021-08-30 21:01:00,,0824.1,5.00,0.00,29.2,28.3,00.0,38.1,31.2,14.4,0002.4,0048.09,0030.29,0028.61
2021-08-30 21:02:00,,0824.1,5.02,0.00,29.3,27.8,00.0,38.1,31.1,14.5,0002.4,0048.07,0030.49,0028.76
2021-08-30 21:03:00,,0824.0,5.00,0.00,29.1,26.3,00.0,38.1,30.6,13.7,0002.2,0048.51,0030.68,0028.91
2021-08-30 21:04:00,,0824.1,5.00,0.00,29.0,26.1,00.0,38.1,30.5,13.3,0002.1,0047.47,0030.86,0029.10
2021-08-30 21:05:00,,0824.1,4.99,0.00,29.0,26.5,00.0,38.1,30.7,13.4,0002.1,0047.19,0030.97,0029.29
2021-08-30 21:06:00,,0824.1,5.01,0.00,29.0,26.9,00.0,38.1,30.7,13.1,0002.3,0046.82,0031.04,0029.39
2021-08-30 21:07:00,,0824.1,4.98,0.00,29.1,27.3,00.0,38.1,30.9,13.0,0002.3,0045.57,0031.12,0029.47
2021-08-30 21:08:00,,0824.0,5.02,0.00,29.1,27.7,00.0,38.1,31.0,13.6,0002.1,0045.99,0031.16,0029.52
2021-08-30 21:09:00,,0824.1,5.00,0.00,29.2,28.0,00.0,38.1,31.1,13.3,0002.1,0045.92,0031.09,0029.50
2021-08-30 21:10:00,,0824.0,5.00,0.00,29.2,28.3,00.0,38.1,31.2,13.2,0002.1,0045.07,0031.02,0029.44
2021-08-30 21:11:00,,0824.0,5.00,0.00,29.3,27.8,00.0,38.1,31.0,13.4,0002.0,0044.80,0031.02,0029.40
2021-08-30 21:12:00,,0823.9,5.01,0.00,29.2,26.3,00.0,38.1,30.6,13.8,0001.9,0044.14,0030.91,0029.33
2021-08-30 21:13:00,,0824.0,5.00,0.00,29.1,26.0,00.0,38.1,30.5,13.0,0002.1,0043.44,0030.77,0029.30
2021-08-30 21:14:00,,0824.0,4.99,0.00,29.0,26.5,00.0,38.1,30.7,13.1,0002.0,0043.42,0030.64,0029.25
2021-08-30 21:15:00,,0824.0,5.01,0.00,29.0,26.9,00.0,38.1,30.8,13.6,0002.1,0043.40,0030.60,0029.21
2021-08-30 21:16:00,,0824.0,4.99,0.00,29.1,27.3,00.0,38.1,30.9,13.4,0002.1,0043.55,0030.56,0029.14
2021-08-30 21:17:00,,0823.9,5.00,0.00,29.1,27.7,00.0,38.1,31.0,13.4,0001.7,0043.11,0030.49,0029.05
2021-08-30 21:18:00,,0824.0,5.01,0.00,29.2,28.0,00.0,38.1,31.1,13.1,0001.6,0042.52,0030.44,0028.99
2021-08-30 21:19:00,,0823.9,4.98,0.00,29.3,28.2,00.0,38.1,31.2,12.9,0001.7,0042.75,0030.46,0029.00
2021-08-30 21:20:00,,0823.9,5.01,0.00,29.2,27.0,00.0,38.2,30.9,12.9,0001.8,0043.82,0030.44,0028.99
2021-08-30 21:21:00,,0824.0,5.00,0.00,29.1,25.8,00.0,38.1,30.5,12.6,0001.8,0043.66,0030.47,0028.98
2021-08-30 21:22:00,,0824.0,5.01,0.00,29.0,26.2,00.0,38.1,30.6,12.2,0001.9,0043.11,0030.45,0029.00
2021-08-30 21:23:00,,0824.0,5.00,0.00,29.0,26.6,00.0,38.1,30.7,12.5,0001.8,0043.23,0030.52,0029.02
2021-08-30 21:24:00,,0824.0,5.01,0.00,29.0,27.1,00.0,38.1,30.8,12.8,0001.7,0043.48,0030.60,0029.06
2021-08-30 21:25:00,,0823.9,4.99,0.00,29.1,27.5,00.0,38.1,30.9,12.5,0002.0,0043.52,0030.74,0029.17
2021-08-30 21:26:00,,0824.0,5.00,0.00,29.1,27.9,00.0,38.1,31.0,12.4,0002.1,0045.05,0030.83,0029.22
2021-08-30 21:27:00,,0824.0,4.99,0.00,29.2,28.2,00.0,38.1,31.1,12.6,0002.3,0044.51,0030.86,0029.30
2021-08-30 21:28:00,,0823.9,5.01,0.00,29.3,27.9,00.0,38.2,31.1,12.6,0002.3,0045.24,0030.93,0029.40
2021-08-30 21:29:00,,0824.0,5.00,0.00,29.2,26.3,00.0,38.1,30.7,11.9,0002.4,0045.09,0030.95,0029.46
2021-08-30 21:30:00,,0823.9,4.99,0.00,29.1,26.0,00.0,38.1,30.5,12.0,0002.4,0043.95,0030.96,0029.47
2021-08-30 21:31:00,,0823.9,4.99,0.00,29.0,26.4,00.0,38.1,30.6,11.8,0002.0,0042.83,0030.98,0029.48
2021-08-30 21:32:00,,0823.9,4.99,0.00,29.0,26.8,00.0,38.1,30.7,12.0,0001.6,0043.64,0030.97,0029.49
2021-08-30 21:33:00,,0823.9,4.99,0.00,29.0,27.2,00.0,38.1,30.8,11.6,0001.6,0044.61,0030.92,0029.49
2021-08-30 21:34:00,,0823.8,5.00,0.00,29.1,27.6,00.0,38.1,30.9,11.7,0001.8,0045.01,0030.94,0029.53
2021-08-30 21:35:00,,0823.9,5.00,0.00,29.2,28.0,00.0,38.1,31.1,11.6,0001.7,0045.03,0030.99,0029.58
2021-08-30 21:36:00,,0823.9,5.01,0.00,29.2,27.8,00.0,38.1,31.0,11.3,0001.8,0044.45,0030.99,0029.60
2021-08-30 21:37:00,,0823.8,5.00,0.00,29.1,26.2,00.0,38.1,30.5,11.1,0001.8,0042.58,0030.90,0029.59
2021-08-30 21:38:00,,0823.8,4.99,0.00,29.0,25.8,00.0,38.1,30.4,11.3,0001.6,0042.08,0030.88,0029.58
2021-08-30 21:39:00,,0823.8,5.00,0.00,29.0,26.3,00.0,38.1,30.5,11.4,0001.6,0041.59,0030.86,0029.55
2021-08-30 21:40:00,,0823.8,4.99,0.00,29.0,26.7,00.0,38.1,30.6,11.0,0001.9,0041.57,0030.89,0029.53
2021-08-30 21:41:00,,0823.8,5.00,0.00,29.0,27.2,00.0,38.1,30.8,10.8,0001.8,0041.52,0030.87,0029.51
2021-08-30 21:42:00,,0823.8,5.01,0.00,29.0,27.6,00.0,38.1,30.9,10.9,0002.0,0041.51,0030.85,0029.52
2021-08-30 21:43:00,,0823.8,5.00,0.00,29.1,27.9,00.0,38.1,31.0,11.1,0002.2,0040.60,0030.84,0029.52
2021-08-30 21:44:00,,0823.8,5.01,0.00,29.2,28.2,00.0,38.1,31.1,11.2,0002.5,0039.14,0030.83,0029.48
2021-08-30 21:45:00,,0823.8,4.99,0.00,29.2,27.1,00.0,38.1,30.8,11.2,0002.5,0038.57,0030.75,0029.42
2021-08-30 21:46:00,,0823.8,5.00,0.00,29.0,25.8,00.0,38.1,30.4,11.4,0002.6,0040.00,0030.68,0029.37
2021-08-30 21:47:00,,0823.7,5.00,0.00,29.0,26.0,00.0,38.1,30.5,11.2,0002.4,0040.22,0030.64,0029.33
2021-08-30 21:48:00,,0823.7,5.01,0.00,28.9,26.4,00.0,38.0,30.6,11.4,0002.4,0041.50,0030.62,0029.30
2021-08-30 21:49:00,,0823.7,5.00,0.00,29.0,26.9,00.0,38.0,30.6,11.1,0002.5,0042.00,0030.64,0029.29
2021-08-30 21:50:00,,0823.7,4.99,0.00,29.0,27.3,00.0,38.0,30.8,11.3,0002.6,0042.39,0030.67,0029.29
2021-08-30 21:51:00,,0823.8,5.01,0.00,29.0,27.7,00.0,38.0,30.9,11.2,0002.8,0042.47,0030.55,0029.25
2021-08-30 21:52:00,,0823.7,5.00,0.00,29.1,28.0,00.0,38.1,31.0,11.8,0002.8,0042.35,0030.50,0029.22
2021-08-30 21:53:00,,0823.7,5.01,0.00,29.2,28.2,00.0,38.1,31.2,11.9,0002.8,0042.62,0030.48,0029.18
2021-08-30 21:54:00,,0823.7,5.00,0.00,29.2,28.1,00.0,38.1,31.1,11.5,0002.9,0042.49,0030.41,0029.15
2021-08-30 21:55:00,,0823.7,5.00,0.00,29.2,26.5,00.0,38.1,30.6,11.9,0002.9,0042.66,0030.43,0029.18
2021-08-30 21:56:00,,0823.7,5.00,0.00,29.0,25.9,00.0,38.1,30.5,11.5,0002.8,0042.65,0030.45,0029.21
2021-08-30 21:57:00,,0823.7,4.99,0.00,29.0,26.3,00.0,38.1,30.6,11.9,0002.8,0041.53,0030.51,0029.24
2021-08-30 21:58:00,,0823.7,5.00,0.00,29.0,26.7,00.0,38.1,30.6,12.1,0002.9,0041.52,0030.51,0029.23
2021-08-30 21:59:00,,0823.7,5.01,0.00,29.0,27.1,00.0,38.0,30.7,12.1,0003.0,0040.23,0030.50,0029.22
